Newton, KS

12:44 PM CDT on April 30, 2017 (GMT -0500)
Newton City County

Weather History for KEWK - January, 2013

Change the Weather History Date:

Friday, January 11, 2013

  Actual Average Record
Temperature  
Mean Temperature 47 °F -  
Max Temperature 57 °F 38 °F 62 °F (2007)
Min Temperature 37 °F 21 °F 0 °F (1997)
Degree Days  
Heating Degree Days 18    
Moisture  
Dew Point 39 °F    
Average Humidity 71    
Maximum Humidity 93    
Minimum Humidity 30    
Precipitation  
Precipitation 0.00 in - - ()
Sea Level Pressure  
Sea Level Pressure 29.65 in    
Wind  
Wind Speed 19 mph (SSW)    
Max Wind Speed 26 mph    
Max Gust Speed 37 mph    
Visibility 9 miles    
Events      
Averages and records for this station are not official NWS values.
T = Trace of Precipitation, MM = Missing Value Source: NWS Daily Summary

Daily Weather History Graph

Daily Weather History Graph

Search for Another Location

Airport or City:

Trip Planner

Search our weather history database for the weather conditions in past years. The results will help you decide how hot, cold, wet, or windy it might be!

Date:

Astronomy

Jan. 11, 2013 Rise Set
Actual Time 7:45 AM CST 5:29 PM CST
Civil Twilight 7:16 AM CST 5:58 PM CST
Nautical Twilight 6:43 AM CST 6:31 PM CST
Astronomical Twilight 6:11 AM CST 7:02 PM CST
Moon 7:19 AM CST (1/11) 5:48 PM CST (1/11)
Length of Visible Light 10h 42m
Length of Day
9h 44m
Waning Crescent, 0% of the Moon is Illuminated
Jan 11
Waning Crescent
Jan 11
New
Jan 18
First Quarter
Jan 26
Full
Feb 3
Last Quarter

Hourly Weather History & Observations

Time (CST) Temp. Windchill Dew Point Humidity Pressure Visibility Wind Dir Wind Speed Gust Speed Precip Events Conditions
12:15 AM 44.6 °F 38.4 °F 41.0 °F 87% 29.75 in 0.5 mi SSW 12.7 mph 18.4 mph N/A   Overcast
12:35 AM 44.6 °F 36.9 °F 41.0 °F 87% 29.75 in 0.5 mi SSW 18.4 mph 25.3 mph N/A   Overcast
12:55 AM 44.6 °F 37.2 °F 41.0 °F 87% 29.75 in 0.5 mi SSW 17.3 mph - N/A   Overcast
1:15 AM 44.6 °F 37.2 °F 41.0 °F 87% 29.73 in 0.8 mi SSW 17.3 mph - N/A   Overcast
1:35 AM 44.6 °F 37.2 °F 41.0 °F 87% 29.73 in 1.5 mi SSW 17.3 mph 25.3 mph N/A   Overcast
1:55 AM 44.6 °F 36.4 °F 41.0 °F 87% 29.73 in 3.0 mi SSW 20.7 mph 24.2 mph N/A   Overcast
2:15 AM 44.6 °F 36.6 °F 41.0 °F 87% 29.73 in 5.0 mi SSW 19.6 mph - N/A   Overcast
2:35 AM 44.6 °F 36.6 °F 41.0 °F 87% 29.70 in 7.0 mi South 19.6 mph - N/A   Overcast
2:55 AM 44.6 °F 36.9 °F 41.0 °F 87% 29.69 in 10.0 mi South 18.4 mph - N/A   Overcast
3:15 AM 44.6 °F 36.1 °F 42.8 °F 93% 29.69 in 10.0 mi South 21.9 mph 25.3 mph N/A   Overcast
3:35 AM 44.6 °F 36.4 °F 42.8 °F 93% 29.68 in 10.0 mi SSW 20.7 mph 25.3 mph N/A   Overcast
3:55 AM 44.6 °F 36.6 °F 42.8 °F 93% 29.66 in 10.0 mi South 19.6 mph 24.2 mph N/A   Overcast
4:15 AM 44.6 °F 36.6 °F 42.8 °F 93% 29.65 in 10.0 mi SSW 19.6 mph - N/A   Mostly Cloudy
4:35 AM 44.6 °F 36.4 °F 41.0 °F 87% 29.64 in 10.0 mi South 20.7 mph 28.8 mph N/A   Mostly Cloudy
4:55 AM 44.6 °F 35.7 °F 41.0 °F 87% 29.63 in 10.0 mi SSW 24.2 mph 28.8 mph N/A   Scattered Clouds
5:15 AM 44.6 °F 36.1 °F 41.0 °F 87% 29.62 in 10.0 mi South 21.9 mph - N/A   Clear
5:35 AM 44.6 °F 35.9 °F 41.0 °F 87% 29.60 in 10.0 mi South 23.0 mph 28.8 mph N/A   Clear
5:55 AM 44.6 °F 36.1 °F 41.0 °F 87% 29.60 in 10.0 mi South 21.9 mph 26.5 mph N/A   Clear
6:15 AM 44.6 °F 36.1 °F 41.0 °F 87% 29.61 in 10.0 mi South 21.9 mph 28.8 mph N/A   Clear
6:35 AM 44.6 °F 36.4 °F 41.0 °F 87% 29.62 in 10.0 mi South 20.7 mph - N/A   Clear
6:55 AM 44.6 °F 36.9 °F 39.2 °F 81% 29.62 in 10.0 mi South 18.4 mph 23.0 mph N/A   Clear
7:15 AM 44.6 °F 36.4 °F 39.2 °F 81% 29.62 in 10.0 mi South 20.7 mph - N/A   Clear
7:35 AM 44.6 °F 36.9 °F 39.2 °F 81% 29.63 in 10.0 mi South 18.4 mph 25.3 mph N/A   Clear
7:55 AM 44.6 °F 36.4 °F 39.2 °F 81% 29.63 in 10.0 mi South 20.7 mph 27.6 mph N/A   Clear
8:15 AM 44.6 °F 36.1 °F 39.2 °F 81% 29.64 in 10.0 mi South 21.9 mph 28.8 mph N/A   Clear
8:35 AM 46.4 °F 38.5 °F 39.2 °F 76% 29.64 in 10.0 mi SSW 21.9 mph 27.6 mph N/A   Clear
8:55 AM 46.4 °F 38.3 °F 39.2 °F 76% 29.64 in 10.0 mi SSW 23.0 mph 28.8 mph N/A   Clear
9:35 AM 46.4 °F 38.7 °F 39.2 °F 76% 29.63 in 10.0 mi South 20.7 mph 25.3 mph N/A   Clear
9:55 AM 46.4 °F 39.0 °F 39.2 °F 76% 29.64 in 10.0 mi SSW 19.6 mph 25.3 mph N/A   Clear
10:15 AM 48.2 °F - 39.2 °F 71% 29.63 in 10.0 mi South 20.7 mph 26.5 mph N/A   Clear
10:35 AM 48.2 °F - 39.2 °F 71% 29.63 in 10.0 mi South 20.7 mph 32.2 mph N/A   Clear
10:55 AM 48.2 °F - 41.0 °F 76% 29.63 in 10.0 mi SSW 20.7 mph 28.8 mph N/A   Clear
11:15 AM 50.0 °F - 41.0 °F 71% 29.62 in 10.0 mi SSW 21.9 mph - N/A   Clear
11:55 AM 53.6 °F - 42.8 °F 67% 29.59 in 10.0 mi South 21.9 mph 31.1 mph N/A   Clear
12:15 PM 53.6 °F - 42.8 °F 67% 29.58 in 10.0 mi SSW 23.0 mph 27.6 mph N/A   Clear
12:35 PM 53.6 °F - 41.0 °F 62% 29.58 in 10.0 mi SSW 21.9 mph 26.5 mph N/A   Clear
12:55 PM 53.6 °F - 41.0 °F 62% 29.56 in 10.0 mi SSW 23.0 mph 27.6 mph N/A   Clear
1:15 PM 53.6 °F - 41.0 °F 62% 29.55 in 10.0 mi SSW 19.6 mph 27.6 mph N/A   Clear
2:15 PM 53.6 °F - 42.8 °F 67% 29.54 in 10.0 mi SSW 24.2 mph 33.4 mph N/A   Clear
2:35 PM 53.6 °F - 42.8 °F 67% 29.53 in 10.0 mi SSW 24.2 mph 32.2 mph N/A   Clear
2:55 PM 55.4 °F - 42.8 °F 63% 29.53 in 10.0 mi SSW 24.2 mph 36.8 mph N/A   Clear
3:15 PM 55.4 °F - 42.8 °F 63% 29.53 in 10.0 mi SSW 24.2 mph 29.9 mph N/A   Clear
3:35 PM 55.4 °F - 42.8 °F 63% 29.53 in 10.0 mi South 23.0 mph 28.8 mph N/A   Clear
3:55 PM 55.4 °F - 42.8 °F 63% 29.54 in 10.0 mi South 23.0 mph 28.8 mph N/A   Clear
4:15 PM 55.4 °F - 42.8 °F 63% 29.54 in 10.0 mi South 25.3 mph 33.4 mph N/A   Clear
4:35 PM 55.4 °F - 42.8 °F 63% 29.54 in 10.0 mi South 24.2 mph 33.4 mph N/A   Clear
4:55 PM 55.4 °F - 42.8 °F 63% 29.55 in 10.0 mi South 24.2 mph 29.9 mph N/A   Clear
5:15 PM 57.2 °F - 44.6 °F 63% 29.56 in 10.0 mi SSW 24.2 mph 29.9 mph N/A   Clear
5:35 PM 57.2 °F - 42.8 °F 59% 29.56 in 10.0 mi SSW 24.2 mph 29.9 mph N/A   Clear
5:55 PM 57.2 °F - 42.8 °F 59% 29.57 in 10.0 mi SSW 23.0 mph 31.1 mph N/A   Clear
6:15 PM 57.2 °F - 42.8 °F 59% 29.58 in 10.0 mi SSW 23.0 mph - N/A   Clear
6:35 PM 57.2 °F - 42.8 °F 59% 29.59 in 10.0 mi SSW 21.9 mph 29.9 mph N/A   Clear
6:55 PM 55.4 °F - 42.8 °F 63% 29.61 in 10.0 mi SSW 19.6 mph - N/A   Clear
7:15 PM 55.4 °F - 42.8 °F 63% 29.63 in 10.0 mi SSW 18.4 mph - N/A   Clear
7:35 PM 55.4 °F - 42.8 °F 63% 29.65 in 10.0 mi SW 18.4 mph 25.3 mph N/A   Clear
7:55 PM 55.4 °F - 42.8 °F 63% 29.66 in 10.0 mi SW 16.1 mph 23.0 mph N/A   Clear
8:15 PM 55.4 °F - 37.4 °F 51% 29.67 in 10.0 mi WSW 19.6 mph 25.3 mph N/A   Clear
8:35 PM 55.4 °F - 33.8 °F 44% 29.68 in 10.0 mi WSW 25.3 mph 31.1 mph N/A   Clear
8:55 PM 53.6 °F - 30.2 °F 41% 29.70 in 10.0 mi WSW 17.3 mph 27.6 mph N/A   Clear
9:15 PM 51.8 °F - 28.4 °F 41% 29.72 in 10.0 mi West 19.6 mph 25.3 mph N/A   Clear
9:35 PM 51.8 °F - 23.0 °F 33% 29.74 in 10.0 mi West 16.1 mph 26.5 mph N/A   Clear
9:55 PM 48.2 °F - 17.6 °F 30% 29.76 in 10.0 mi West 19.6 mph 26.5 mph N/A   Clear
10:15 PM 46.4 °F 39.0 °F 19.4 °F 34% 29.78 in 10.0 mi WNW 19.6 mph 28.8 mph N/A   Clear
10:35 PM 44.6 °F 35.3 °F 26.6 °F 49% 29.79 in 10.0 mi WNW 26.5 mph - N/A   Clear
10:55 PM 41.0 °F 33.9 °F 30.2 °F 65% 29.80 in 10.0 mi NW 12.7 mph - N/A   Clear
11:15 PM 39.2 °F 31.6 °F 30.2 °F 70% 29.82 in 10.0 mi NW 12.7 mph 18.4 mph N/A   Partly Cloudy
11:35 PM 37.4 °F 29.3 °F 28.4 °F 70% 29.84 in 10.0 mi NW 12.7 mph - N/A   Clear
11:55 PM 37.4 °F 29.8 °F 28.4 °F 70% 29.85 in 10.0 mi NNW 11.5 mph - N/A   Clear